Time,TemperatureF,DewpointF,PressureIn,WindDirection,WindDirectionDegrees,WindSpeedMPH,WindSpeedGustMPH,Humidity,HourlyPrecipIn,Conditions,Clouds,dailyrainin,SolarRadiationWatts/m^2,SoftwareType,DateUTC
2013-02-12 00:00:00,39.2,37.6,30.27,ESE,117,0.0,0.0,94,0.00,,,0.00,0001,Weather View 32 v70,2013-02-12 08:00:00,
2013-02-12 00:05:00,38.7,37.1,30.27,SSW,207,0.0,0.0,94,0.00,,,0.00,0001,Weather View 32 v70,2013-02-12 08:05:00,
2013-02-12 00:10:00,38.5,37.2,30.27,SW,229,0.0,0.0,95,0.00,,,0.00,0002,Weather View 32 v70,2013-02-12 08:10:00,
2013-02-12 00:15:00,38.5,37.5,30.27,South,184,0.0,0.0,96,0.00,,,0.00,0001,Weather View 32 v70,2013-02-12 08:15:00,
2013-02-12 00:20:00,38.3,37.3,30.27,South,184,0.0,0.0,96,0.00,,,0.00,0002,Weather View 32 v70,2013-02-12 08:20:00,
2013-02-12 00:30:00,38.2,37.7,30.27,SSW,207,0.0,0.0,98,0.00,,,0.00,0001,Weather View 32 v70,2013-02-12 08:30:00,
2013-02-12 00:35:00,38.1,37.6,30.28,SSW,207,0.0,0.0,98,0.00,,,0.00,0001,Weather View 32 v70,2013-02-12 08:35:00,
2013-02-12 00:40:00,37.9,37.6,30.28,SE,139,0.0,0.0,99,0.00,,,0.00,0001,Weather View 32 v70,2013-02-12 08:40:00,
2013-02-12 00:45:00,37.8,37.5,30.28,West,274,0.0,0.0,99,0.00,,,0.00,0001,Weather View 32 v70,2013-02-12 08:45:00,
2013-02-12 00:55:00,37.5,37.5,30.28,ENE,72,0.0,0.0,100,0.00,,,0.00,0002,Weather View 32 v70,2013-02-12 08:55:00,
2013-02-12 01:00:00,37.3,37.3,30.28,East,94,0.0,0.0,100,0.00,,,0.00,0001,Weather View 32 v70,2013-02-12 09:00:00,
2013-02-12 01:05:00,37.1,37.1,30.28,East,94,0.0,0.0,100,0.00,,,0.00,0001,Weather View 32 v70,2013-02-12 09:05:00,
2013-02-12 01:10:00,37.0,37.0,30.28,SE,139,0.0,0.0,100,0.00,,,0.00,0001,Weather View 32 v70,2013-02-12 09:10:00,
2013-02-12 01:15:00,36.9,36.9,30.28,SSE,162,0.0,0.0,100,0.00,,,0.00,0002,Weather View 32 v70,2013-02-12 09:15:00,
2013-02-12 01:25:00,36.9,36.9,30.28,South,184,0.0,0.0,100,0.00,,,0.00,0001,Weather View 32 v70,2013-02-12 09:25:00,
2013-02-12 01:30:00,36.7,36.7,30.28,South,184,0.0,0.0,100,0.00,,,0.00,0001,Weather View 32 v70,2013-02-12 09:30:00,
2013-02-12 01:35:00,36.9,36.9,30.28,SSW,207,0.0,0.0,100,0.00,,,0.00,0001,Weather View 32 v70,2013-02-12 09:35:00,
2013-02-12 01:40:00,36.9,36.9,30.29,West,274,0.0,0.0,100,0.00,,,0.00,0002,Weather View 32 v70,2013-02-12 09:40:00,
2013-02-12 01:50:00,36.8,36.8,30.29,South,184,0.0,0.0,100,0.00,,,0.00,0002,Weather View 32 v70,2013-02-12 09:50:00,
2013-02-12 01:55:00,36.8,36.8,30.29,South,184,0.0,0.0,100,0.00,,,0.00,0001,Weather View 32 v70,2013-02-12 09:55:00,
2013-02-12 02:00:00,36.8,36.8,30.29,South,184,0.0,0.0,100,0.00,,,0.00,0002,Weather View 32 v70,2013-02-12 10:00:00,
2013-02-12 02:05:00,36.8,36.8,30.29,SSW,207,0.0,0.0,100,0.00,,,0.00,0001,Weather View 32 v70,2013-02-12 10:05:00,
2013-02-12 02:10:00,36.9,36.9,30.30,SSE,162,0.0,0.0,100,0.00,,,0.00,0001,Weather View 32 v70,2013-02-12 10:10:00,
2013-02-12 02:16:00,36.8,36.8,30.30,South,184,0.0,0.0,100,0.00,,,0.00,0001,Weather View 32 v70,2013-02-12 10:16:00,
2013-02-12 02:25:00,36.6,36.6,30.30,SSW,207,0.0,0.0,100,0.00,,,0.00,0001,Weather View 32 v70,2013-02-12 10:25:00,
2013-02-12 02:30:00,36.5,36.5,30.30,SSW,207,0.0,0.0,100,0.00,,,0.00,0001,Weather View 32 v70,2013-02-12 10:30:00,
2013-02-12 02:35:00,36.2,36.2,30.30,SE,139,0.0,0.0,100,0.00,,,0.00,0001,Weather View 32 v70,2013-02-12 10:35:00,
2013-02-12 02:45:00,35.6,35.6,30.30,SE,139,0.0,0.0,100,0.00,,,0.00,0001,Weather View 32 v70,2013-02-12 10:45:00,
2013-02-12 02:50:00,35.5,35.5,30.30,SE,139,0.0,0.0,100,0.00,,,0.00,0001,Weather View 32 v70,2013-02-12 10:50:00,
2013-02-12 02:55:00,35.3,35.3,30.31,SSW,207,0.0,0.0,100,0.00,,,0.00,0001,Weather View 32 v70,2013-02-12 10:55:00,
2013-02-12 03:00:00,35.2,35.2,30.31,SSW,207,0.0,0.0,100,0.00,,,0.00,0001,Weather View 32 v70,2013-02-12 11:00:00,
2013-02-12 03:05:00,35.3,35.3,30.31,WNW,297,0.0,0.0,100,0.00,,,0.00,0001,Weather View 32 v70,2013-02-12 11:05:00,
2013-02-12 03:15:00,35.1,35.1,30.30,South,184,0.0,0.0,100,0.00,,,0.00,0001,Weather View 32 v70,2013-02-12 11:15:00,
2013-02-12 03:20:00,35.2,35.2,30.30,SSW,207,0.0,0.0,100,0.00,,,0.00,0001,Weather View 32 v70,2013-02-12 11:20:00,
2013-02-12 03:25:00,35.1,35.1,30.31,SSW,207,0.0,0.0,100,0.00,,,0.00,0002,Weather View 32 v70,2013-02-12 11:25:00,
2013-02-12 03:30:00,35.1,35.1,30.31,South,184,0.0,0.0,100,0.00,,,0.00,0001,Weather View 32 v70,2013-02-12 11:30:00,
2013-02-12 03:40:00,35.0,35.0,30.31,SE,139,0.0,0.0,100,0.00,,,0.00,0001,Weather View 32 v70,2013-02-12 11:40:00,
2013-02-12 03:45:00,34.8,34.8,30.31,SSE,162,0.0,0.0,100,0.00,,,0.00,0001,Weather View 32 v70,2013-02-12 11:45:00,
2013-02-12 03:50:00,34.5,34.5,30.31,South,184,0.0,0.0,100,0.00,,,0.00,0001,Weather View 32 v70,2013-02-12 11:50:00,
2013-02-12 03:55:00,34.8,34.8,30.31,South,184,0.0,0.0,100,0.00,,,0.00,0001,Weather View 32 v70,2013-02-12 11:55:00,
2013-02-12 04:00:00,34.8,34.8,30.31,SW,229,0.0,0.0,100,0.00,,,0.00,0001,Weather View 32 v70,2013-02-12 12:00:00,
2013-02-12 04:10:00,34.9,34.9,30.31,South,184,0.0,0.0,100,0.00,,,0.00,0001,Weather View 32 v70,2013-02-12 12:10:00,
2013-02-12 04:15:00,34.9,34.9,30.32,South,184,0.0,0.0,100,0.00,,,0.00,0001,Weather View 32 v70,2013-02-12 12:15:00,
2013-02-12 04:20:00,34.8,34.8,30.32,West,274,0.0,0.0,100,0.00,,,0.00,0001,Weather View 32 v70,2013-02-12 12:20:00,
2013-02-12 04:25:00,34.9,34.9,30.32,SSW,207,0.0,0.0,100,0.00,,,0.00,0001,Weather View 32 v70,2013-02-12 12:25:00,
2013-02-12 04:35:00,34.7,34.7,30.32,ESE,117,0.0,0.0,100,0.00,,,0.00,0001,Weather View 32 v70,2013-02-12 12:35:00,
2013-02-12 04:40:00,34.4,34.4,30.32,SE,139,0.0,0.0,100,0.00,,,0.00,0001,Weather View 32 v70,2013-02-12 12:40:00,
2013-02-12 04:45:00,34.3,34.3,30.32,SSE,162,0.0,0.0,100,0.00,,,0.00,0001,Weather View 32 v70,2013-02-12 12:45:00,
2013-02-12 04:50:00,34.3,34.3,30.32,South,184,0.0,0.0,100,0.00,,,0.00,0001,Weather View 32 v70,2013-02-12 12:50:00,
2013-02-12 04:55:00,34.9,34.9,30.31,South,184,0.0,0.0,100,0.00,,,0.00,0001,Weather View 32 v70,2013-02-12 12:55:00,
2013-02-12 05:05:00,34.4,34.4,30.31,South,184,0.0,0.0,100,0.00,,,0.00,0001,Weather View 32 v70,2013-02-12 13:05:00,
2013-02-12 05:10:00,34.2,34.2,30.31,South,184,0.0,0.0,100,0.00,,,0.00,0001,Weather View 32 v70,2013-02-12 13:10:00,
2013-02-12 05:15:00,34.1,34.1,30.31,South,184,0.0,0.0,100,0.00,,,0.00,0002,Weather View 32 v70,2013-02-12 13:15:00,
2013-02-12 05:20:00,33.7,33.7,30.31,South,184,0.0,0.0,100,0.00,,,0.00,0002,Weather View 32 v70,2013-02-12 13:20:00,
2013-02-12 05:30:00,33.7,33.7,30.32,SSE,162,0.0,0.0,100,0.00,,,0.00,0001,Weather View 32 v70,2013-02-12 13:30:00,
2013-02-12 05:35:00,33.6,33.6,30.32,SSE,162,0.0,0.0,100,0.00,,,0.00,0001,Weather View 32 v70,2013-02-12 13:35:00,
2013-02-12 05:40:00,33.5,33.5,30.32,SSE,162,0.0,0.0,100,0.00,,,0.00,0002,Weather View 32 v70,2013-02-12 13:40:00,
2013-02-12 05:45:00,33.5,33.5,30.31,SSE,162,0.0,0.0,100,0.00,,,0.00,0002,Weather View 32 v70,2013-02-12 13:45:00,
2013-02-12 05:50:00,33.8,33.8,30.32,SSE,162,0.0,0.0,100,0.00,,,0.00,0001,Weather View 32 v70,2013-02-12 13:50:00,
2013-02-12 06:00:00,33.7,33.7,30.32,SE,139,0.0,0.0,100,0.00,,,0.00,0001,Weather View 32 v70,2013-02-12 14:00:00,
2013-02-12 06:05:00,33.6,33.6,30.32,South,184,0.0,0.0,100,0.00,,,0.00,0001,Weather View 32 v70,2013-02-12 14:05:00,
2013-02-12 06:10:00,33.7,33.7,30.33,SSW,207,0.0,0.0,100,0.00,,,0.00,0001,Weather View 32 v70,2013-02-12 14:10:00,
2013-02-12 06:15:00,33.5,33.5,30.33,SSW,207,0.0,0.0,100,0.00,,,0.00,0001,Weather View 32 v70,2013-02-12 14:15:00,
2013-02-12 06:25:00,34.1,34.1,30.33,NW,319,0.0,0.0,100,0.00,,,0.00,0002,Weather View 32 v70,2013-02-12 14:25:00,
2013-02-12 06:30:00,34.3,34.3,30.34,SE,139,0.0,0.0,100,0.00,,,0.00,0002,Weather View 32 v70,2013-02-12 14:30:00,
2013-02-12 06:35:00,33.9,33.9,30.34,South,184,0.0,0.0,100,0.00,,,0.00,0002,Weather View 32 v70,2013-02-12 14:35:00,
2013-02-12 06:40:00,33.9,33.9,30.34,SSW,207,0.0,0.0,100,0.00,,,0.00,0002,Weather View 32 v70,2013-02-12 14:40:00,
2013-02-12 06:45:00,33.9,33.9,30.34,SSE,162,0.0,0.0,100,0.00,,,0.00,0002,Weather View 32 v70,2013-02-12 14:45:00,
2013-02-12 06:55:00,33.7,33.7,30.35,South,184,0.0,0.0,100,0.00,,,0.00,0004,Weather View 32 v70,2013-02-12 14:55:00,
2013-02-12 07:00:00,33.8,33.8,30.35,South,184,0.0,0.0,100,0.00,,,0.00,0006,Weather View 32 v70,2013-02-12 15:00:00,
2013-02-12 07:05:00,33.7,33.7,30.36,South,184,0.0,0.0,100,0.00,,,0.00,0008,Weather View 32 v70,2013-02-12 15:05:00,
2013-02-12 07:10:00,33.5,33.5,30.36,South,184,0.0,0.0,100,0.00,,,0.00,0017,Weather View 32 v70,2013-02-12 15:10:00,
2013-02-12 07:19:00,33.6,33.6,30.36,South,184,0.0,0.0,100,0.00,,,0.00,0049,Weather View 32 v70,2013-02-12 15:19:00,
2013-02-12 07:25:00,34.2,34.2,30.37,SSE,162,0.0,0.0,100,0.00,,,0.00,0085,Weather View 32 v70,2013-02-12 15:25:00,
2013-02-12 07:30:00,34.7,34.7,30.37,South,184,0.0,0.0,100,0.00,,,0.00,0102,Weather View 32 v70,2013-02-12 15:30:00,
2013-02-12 07:35:00,35.1,35.1,30.37,SSE,162,0.0,0.0,100,0.00,,,0.00,0120,Weather View 32 v70,2013-02-12 15:35:00,
2013-02-12 07:45:00,36.4,36.4,30.37,SE,139,0.0,0.0,100,0.00,,,0.00,0145,Weather View 32 v70,2013-02-12 15:45:00,
2013-02-12 07:50:00,36.9,36.9,30.37,SE,139,0.0,0.0,100,0.00,,,0.00,0158,Weather View 32 v70,2013-02-12 15:50:00,
2013-02-12 07:55:00,37.3,37.3,30.38,ESE,117,0.0,0.0,100,0.00,,,0.00,0175,Weather View 32 v70,2013-02-12 15:55:00,
2013-02-12 08:00:00,38.2,38.2,30.38,SE,139,0.0,0.0,100,0.00,,,0.00,0181,Weather View 32 v70,2013-02-12 16:00:00,
2013-02-12 08:05:00,39.0,39.0,30.38,SE,139,0.0,0.0,100,0.00,,,0.00,0182,Weather View 32 v70,2013-02-12 16:05:00,
2013-02-12 08:15:00,40.0,40.0,30.39,East,94,0.0,1.0,100,0.00,,,0.00,0210,Weather View 32 v70,2013-02-12 16:15:00,
2013-02-12 08:20:00,40.8,40.8,30.39,WNW,297,0.0,1.0,100,0.00,,,0.00,0224,Weather View 32 v70,2013-02-12 16:20:00,
2013-02-12 08:25:00,40.5,40.5,30.39,NE,49,1.0,2.0,100,0.00,,,0.00,0231,Weather View 32 v70,2013-02-12 16:25:00,
2013-02-12 08:30:00,40.6,40.6,30.39,ENE,72,0.0,3.0,100,0.00,,,0.00,0252,Weather View 32 v70,2013-02-12 16:30:00,
2013-02-12 08:35:00,41.6,41.6,30.39,SE,139,0.0,3.0,100,0.00,,,0.00,0262,Weather View 32 v70,2013-02-12 16:35:00,
2013-02-12 08:45:00,42.5,42.5,30.39,SE,139,0.0,3.0,100,0.00,,,0.00,0300,Weather View 32 v70,2013-02-12 16:45:00,
2013-02-12 08:50:00,43.0,43.0,30.39,ESE,117,1.0,3.0,100,0.00,,,0.00,0310,Weather View 32 v70,2013-02-12 16:50:00,
2013-02-12 08:55:00,43.8,43.8,30.39,SE,139,0.0,3.0,100,0.00,,,0.00,0318,Weather View 32 v70,2013-02-12 16:55:00,
2013-02-12 09:00:00,44.5,44.5,30.39,ENE,72,1.0,3.0,100,0.00,,,0.00,0331,Weather View 32 v70,2013-02-12 17:00:00,
2013-02-12 09:10:00,45.3,45.3,30.40,East,94,3.0,3.0,100,0.00,,,0.00,0329,Weather View 32 v70,2013-02-12 17:10:00,
2013-02-12 09:15:00,45.0,45.0,30.40,ESE,117,3.0,3.0,100,0.00,,,0.00,0341,Weather View 32 v70,2013-02-12 17:15:00,
2013-02-12 09:20:00,45.3,45.3,30.40,ESE,117,1.0,3.0,100,0.00,,,0.00,0340,Weather View 32 v70,2013-02-12 17:20:00,
2013-02-12 09:30:00,46.3,45.5,30.40,ENE,72,1.0,3.0,97,0.00,,,0.00,0365,Weather View 32 v70,2013-02-12 17:30:00,
2013-02-12 09:35:00,46.7,45.1,30.40,North,4,1.0,3.0,94,0.00,,,0.00,0384,Weather View 32 v70,2013-02-12 17:35:00,
2013-02-12 09:40:00,47.4,45.2,30.40,ESE,117,0.0,3.0,92,0.00,,,0.00,0397,Weather View 32 v70,2013-02-12 17:40:00,
2013-02-12 09:50:00,47.9,44.8,30.40,NW,319,2.0,3.0,89,0.00,,,0.00,0426,Weather View 32 v70,2013-02-12 17:50:00,
2013-02-12 09:55:00,48.2,44.8,30.40,North,4,0.0,3.0,88,0.00,,,0.00,0434,Weather View 32 v70,2013-02-12 17:55:00,
2013-02-12 10:05:00,48.6,44.6,30.40,NW,319,3.0,4.0,86,0.00,,,0.00,0448,Weather View 32 v70,2013-02-12 18:05:00,
2013-02-12 10:10:00,49.4,45.4,30.40,SE,139,0.0,4.0,86,0.00,,,0.00,0450,Weather View 32 v70,2013-02-12 18:10:00,
2013-02-12 10:15:00,49.8,45.5,30.39,NNE,27,2.0,4.0,85,0.00,,,0.00,0465,Weather View 32 v70,2013-02-12 18:15:00,
2013-02-12 10:20:00,50.6,45.9,30.39,SE,139,0.0,4.0,84,0.00,,,0.00,0475,Weather View 32 v70,2013-02-12 18:20:00,
2013-02-12 10:25:00,50.6,45.6,30.39,West,274,1.0,4.0,83,0.00,,,0.00,0480,Weather View 32 v70,2013-02-12 18:25:00,
2013-02-12 10:30:00,51.0,45.4,30.40,WNW,297,3.0,4.0,81,0.00,,,0.00,0487,Weather View 32 v70,2013-02-12 18:30:00,
2013-02-12 10:40:00,52.1,45.8,30.40,ENE,72,2.0,4.0,79,0.00,,,0.00,0501,Weather View 32 v70,2013-02-12 18:40:00,
2013-02-12 10:45:00,52.7,46.0,30.40,North,4,0.0,4.0,78,0.00,,,0.00,0507,Weather View 32 v70,2013-02-12 18:45:00,
2013-02-12 10:50:00,52.9,45.5,30.39,East,94,2.0,5.0,76,0.00,,,0.00,0513,Weather View 32 v70,2013-02-12 18:50:00,
2013-02-12 10:55:00,52.7,45.0,30.39,NE,49,2.0,5.0,75,0.00,,,0.00,0519,Weather View 32 v70,2013-02-12 18:55:00,
2013-02-12 11:00:00,53.5,45.8,30.39,NNE,27,3.0,5.0,75,0.00,,,0.00,0525,Weather View 32 v70,2013-02-12 19:00:00,
2013-02-12 11:10:00,54.4,45.5,30.39,WNW,297,1.0,5.0,72,0.00,,,0.00,0536,Weather View 32 v70,2013-02-12 19:10:00,
2013-02-12 11:15:00,54.5,44.9,30.39,SSE,162,0.0,5.0,70,0.00,,,0.00,0540,Weather View 32 v70,2013-02-12 19:15:00,
2013-02-12 11:20:00,55.4,45.8,30.39,North,4,3.0,5.0,70,0.00,,,0.00,0544,Weather View 32 v70,2013-02-12 19:20:00,
2013-02-12 11:25:00,55.3,44.5,30.39,NW,319,1.0,5.0,67,0.00,,,0.00,0550,Weather View 32 v70,2013-02-12 19:25:00,
2013-02-12 11:35:00,55.8,43.8,30.39,NW,319,1.0,5.0,64,0.00,,,0.00,0557,Weather View 32 v70,2013-02-12 19:35:00,
2013-02-12 11:40:00,56.2,44.6,30.39,NNW,342,4.0,6.0,65,0.00,,,0.00,0560,Weather View 32 v70,2013-02-12 19:40:00,
2013-02-12 11:45:00,57.4,45.7,30.39,SSE,162,1.0,6.0,65,0.00,,,0.00,0562,Weather View 32 v70,2013-02-12 19:45:00,
2013-02-12 11:50:00,58.0,45.9,30.38,South,184,1.0,6.0,64,0.00,,,0.00,0567,Weather View 32 v70,2013-02-12 19:50:00,
2013-02-12 11:55:00,57.8,45.7,30.38,ESE,117,2.0,6.0,64,0.00,,,0.00,0571,Weather View 32 v70,2013-02-12 19:55:00,
2013-02-12 12:05:00,57.3,45.2,30.38,NW,319,3.0,6.0,64,0.00,,,0.00,0577,Weather View 32 v70,2013-02-12 20:05:00,
2013-02-12 12:10:00,58.0,46.3,30.38,ESE,117,0.0,6.0,65,0.00,,,0.00,0576,Weather View 32 v70,2013-02-12 20:10:00,
2013-02-12 12:15:00,58.8,46.6,30.37,SSW,207,2.0,6.0,64,0.00,,,0.00,0579,Weather View 32 v70,2013-02-12 20:15:00,
2013-02-12 12:20:00,59.1,46.5,30.37,WNW,297,3.0,6.0,63,0.00,,,0.00,0577,Weather View 32 v70,2013-02-12 20:20:00,
2013-02-12 12:25:00,60.1,47.0,30.37,SSW,207,3.0,6.0,62,0.00,,,0.00,0587,Weather View 32 v70,2013-02-12 20:25:00,
2013-02-12 12:30:00,59.9,47.2,30.37,ESE,117,4.0,6.0,63,0.00,,,0.00,0582,Weather View 32 v70,2013-02-12 20:30:00,
2013-02-12 12:40:00,59.4,46.3,30.36,SSW,207,2.0,6.0,62,0.00,,,0.00,0585,Weather View 32 v70,2013-02-12 20:40:00,
2013-02-12 12:50:00,61.1,47.5,30.36,ESE,117,3.0,6.0,61,0.00,,,0.00,0497,Weather View 32 v70,2013-02-12 20:50:00,
2013-02-12 12:55:00,60.8,46.8,30.36,ESE,117,3.0,6.0,60,0.00,,,0.00,0570,Weather View 32 v70,2013-02-12 20:55:00,
2013-02-12 13:00:00,60.0,46.0,30.36,ESE,117,4.0,6.0,60,0.00,,,0.00,0570,Weather View 32 v70,2013-02-12 21:00:00,
2013-02-12 13:10:00,60.0,45.6,30.35,West,274,3.0,6.0,59,0.00,,,0.00,0574,Weather View 32 v70,2013-02-12 21:10:00,
2013-02-12 13:15:00,59.3,44.9,30.35,WNW,297,3.0,6.0,59,0.00,,,0.00,0569,Weather View 32 v70,2013-02-12 21:15:00,
2013-02-12 13:20:00,59.9,45.5,30.35,SW,229,1.0,6.0,59,0.00,,,0.00,0561,Weather View 32 v70,2013-02-12 21:20:00,
2013-02-12 13:25:00,59.9,45.5,30.35,WNW,297,1.0,7.0,59,0.00,,,0.00,0532,Weather View 32 v70,2013-02-12 21:25:00,
2013-02-12 13:35:00,60.8,46.3,30.35,SW,229,1.0,7.0,59,0.00,,,0.00,0538,Weather View 32 v70,2013-02-12 21:35:00,
2013-02-12 13:40:00,61.8,47.3,30.34,NE,49,2.0,7.0,59,0.00,,,0.00,0541,Weather View 32 v70,2013-02-12 21:40:00,
2013-02-12 13:45:00,62.4,47.4,30.34,ESE,117,4.0,7.0,58,0.00,,,0.00,0533,Weather View 32 v70,2013-02-12 21:45:00,
2013-02-12 13:50:00,61.6,46.2,30.34,SE,139,2.0,7.0,57,0.00,,,0.00,0528,Weather View 32 v70,2013-02-12 21:50:00,
2013-02-12 13:55:00,61.5,46.1,30.34,ENE,72,4.0,7.0,57,0.00,,,0.00,0523,Weather View 32 v70,2013-02-12 21:55:00,
2013-02-12 14:05:00,60.6,45.2,30.34,NE,49,4.0,8.0,57,0.00,,,0.00,0508,Weather View 32 v70,2013-02-12 22:05:00,
2013-02-12 14:10:00,61.4,46.0,30.33,ESE,117,3.0,8.0,57,0.00,,,0.00,0501,Weather View 32 v70,2013-02-12 22:10:00,
2013-02-12 14:15:00,61.5,46.1,30.33,ESE,117,2.0,8.0,57,0.00,,,0.00,0494,Weather View 32 v70,2013-02-12 22:15:00,
2013-02-12 14:20:00,61.9,46.0,30.33,East,94,0.0,8.0,56,0.00,,,0.00,0487,Weather View 32 v70,2013-02-12 22:20:00,
2013-02-12 14:25:00,61.9,46.0,30.33,NNE,27,2.0,8.0,56,0.00,,,0.00,0478,Weather View 32 v70,2013-02-12 22:25:00,
2013-02-12 14:35:00,62.5,46.1,30.33,NE,49,3.0,8.0,55,0.00,,,0.00,0462,Weather View 32 v70,2013-02-12 22:35:00,
2013-02-12 14:40:00,62.5,46.6,30.33,ESE,117,3.0,8.0,56,0.00,,,0.00,0455,Weather View 32 v70,2013-02-12 22:40:00,
2013-02-12 14:45:00,62.6,46.2,30.33,ESE,117,1.0,8.0,55,0.00,,,0.00,0447,Weather View 32 v70,2013-02-12 22:45:00,
2013-02-12 14:50:00,62.2,45.3,30.33,ESE,117,3.0,8.0,54,0.00,,,0.00,0435,Weather View 32 v70,2013-02-12 22:50:00,
2013-02-12 14:55:00,61.7,44.8,30.33,NNE,27,1.0,8.0,54,0.00,,,0.00,0426,Weather View 32 v70,2013-02-12 22:55:00,
2013-02-12 15:05:00,61.7,45.3,30.33,ESE,117,5.0,7.0,55,0.00,,,0.00,0408,Weather View 32 v70,2013-02-12 23:05:00,
2013-02-12 15:10:00,61.7,45.3,30.33,ENE,72,1.0,7.0,55,0.00,,,0.00,0398,Weather View 32 v70,2013-02-12 23:10:00,
2013-02-12 15:15:00,61.5,45.6,30.33,ENE,72,4.0,8.0,56,0.00,,,0.00,0389,Weather View 32 v70,2013-02-12 23:15:00,
2013-02-12 15:20:00,61.2,45.3,30.33,East,94,3.0,8.0,56,0.00,,,0.00,0380,Weather View 32 v70,2013-02-12 23:20:00,
2013-02-12 15:25:00,60.6,45.2,30.32,ESE,117,6.0,8.0,57,0.00,,,0.00,0368,Weather View 32 v70,2013-02-12 23:25:00,
2013-02-12 15:35:00,60.8,45.9,30.32,East,94,3.0,8.0,58,0.00,,,0.00,0347,Weather View 32 v70,2013-02-12 23:35:00,
2013-02-12 15:45:00,60.4,46.0,30.32,ESE,117,2.0,8.0,59,0.00,,,0.00,0323,Weather View 32 v70,2013-02-12 23:45:00,
2013-02-12 15:50:00,60.8,46.3,30.32,SE,139,1.0,8.0,59,0.00,,,0.00,0315,Weather View 32 v70,2013-02-12 23:50:00,
2013-02-12 15:55:00,60.4,45.5,30.32,ENE,72,6.0,8.0,58,0.00,,,0.00,0303,Weather View 32 v70,2013-02-12 23:55:00,
2013-02-12 16:05:00,60.1,45.7,30.32,ENE,72,5.0,8.0,59,0.00,,,0.00,0280,Weather View 32 v70,2013-02-13 00:05:00,
2013-02-12 16:10:00,60.1,45.7,30.32,NE,49,1.0,8.0,59,0.00,,,0.00,0267,Weather View 32 v70,2013-02-13 00:10:00,
2013-02-12 16:15:00,59.9,45.5,30.32,NE,49,4.0,8.0,59,0.00,,,0.00,0254,Weather View 32 v70,2013-02-13 00:15:00,
2013-02-12 16:20:00,59.9,45.5,30.32,ESE,117,4.0,8.0,59,0.00,,,0.00,0227,Weather View 32 v70,2013-02-13 00:20:00,
2013-02-12 16:25:00,59.5,45.1,30.31,North,4,4.0,7.0,59,0.00,,,0.00,0098,Weather View 32 v70,2013-02-13 00:25:00,
2013-02-12 16:35:00,59.0,45.5,30.32,WSW,252,2.0,8.0,61,0.00,,,0.00,0034,Weather View 32 v70,2013-02-13 00:35:00,
2013-02-12 16:40:00,58.2,45.2,30.32,SW,229,2.0,8.0,62,0.00,,,0.00,0033,Weather View 32 v70,2013-02-13 00:40:00,
2013-02-12 16:45:00,57.2,45.1,30.32,West,274,1.0,8.0,64,0.00,,,0.00,0032,Weather View 32 v70,2013-02-13 00:45:00,
2013-02-12 16:50:00,56.6,45.3,30.32,South,184,1.0,8.0,66,0.00,,,0.00,0030,Weather View 32 v70,2013-02-13 00:50:00,
2013-02-12 16:55:00,56.2,45.8,30.32,SSW,207,0.0,8.0,68,0.00,,,0.00,0028,Weather View 32 v70,2013-02-13 00:55:00,
2013-02-12 17:00:00,55.7,45.3,30.32,SSW,207,2.0,8.0,68,0.00,,,0.00,0027,Weather View 32 v70,2013-02-13 01:00:00,
2013-02-12 17:10:00,54.9,44.9,30.32,SW,229,2.0,8.0,69,0.00,,,0.00,0023,Weather View 32 v70,2013-02-13 01:10:00,
2013-02-12 17:15:00,54.6,45.0,30.32,SSW,207,2.0,8.0,70,0.00,,,0.00,0021,Weather View 32 v70,2013-02-13 01:15:00,
2013-02-12 17:20:00,54.4,44.8,30.32,SSW,207,1.0,8.0,70,0.00,,,0.00,0019,Weather View 32 v70,2013-02-13 01:20:00,
2013-02-12 17:25:00,54.2,45.0,30.32,SW,229,3.0,8.0,71,0.00,,,0.00,0016,Weather View 32 v70,2013-02-13 01:25:00,
2013-02-12 17:35:00,53.3,44.5,30.32,SW,229,1.0,6.0,72,0.00,,,0.00,0011,Weather View 32 v70,2013-02-13 01:35:00,
2013-02-12 17:40:00,53.0,44.6,30.33,SW,229,3.0,6.0,73,0.00,,,0.00,0008,Weather View 32 v70,2013-02-13 01:40:00,
2013-02-12 17:45:00,52.9,44.5,30.33,SW,229,2.0,6.0,73,0.00,,,0.00,0006,Weather View 32 v70,2013-02-13 01:45:00,
2013-02-12 17:50:00,52.8,44.4,30.33,SW,229,2.0,6.0,73,0.00,,,0.00,0004,Weather View 32 v70,2013-02-13 01:50:00,
2013-02-12 17:55:00,52.3,44.2,30.33,SW,229,3.0,6.0,74,0.00,,,0.00,0003,Weather View 32 v70,2013-02-13 01:55:00,
2013-02-12 18:05:00,52.1,44.1,30.32,SSW,207,2.0,6.0,74,0.00,,,0.00,0002,Weather View 32 v70,2013-02-13 02:05:00,
2013-02-12 18:10:00,51.7,44.0,30.32,SW,229,2.0,4.0,75,0.00,,,0.00,0002,Weather View 32 v70,2013-02-13 02:10:00,
2013-02-12 18:15:00,51.7,44.0,30.32,SSE,162,1.0,4.0,75,0.00,,,0.00,0002,Weather View 32 v70,2013-02-13 02:15:00,
2013-02-12 18:20:00,51.6,43.9,30.32,SSW,207,2.0,4.0,75,0.00,,,0.00,0001,Weather View 32 v70,2013-02-13 02:20:00,
2013-02-12 18:25:00,51.3,44.0,30.32,South,184,0.0,4.0,76,0.00,,,0.00,0002,Weather View 32 v70,2013-02-13 02:25:00,
2013-02-12 18:30:00,50.9,43.6,30.32,SW,229,1.0,4.0,76,0.00,,,0.00,0001,Weather View 32 v70,2013-02-13 02:30:00,
2013-02-12 18:40:00,50.3,43.7,30.32,SSW,207,0.0,4.0,78,0.00,,,0.00,0001,Weather View 32 v70,2013-02-13 02:40:00,
2013-02-12 18:45:00,50.0,43.7,30.32,West,274,1.0,4.0,79,0.00,,,0.00,0001,Weather View 32 v70,2013-02-13 02:45:00,
2013-02-12 18:50:00,50.1,43.8,30.32,WSW,252,2.0,4.0,79,0.00,,,0.00,0002,Weather View 32 v70,2013-02-13 02:50:00,
2013-02-12 18:55:00,50.0,43.7,30.32,SSW,207,1.0,4.0,79,0.00,,,0.00,0001,Weather View 32 v70,2013-02-13 02:55:00,
2013-02-12 19:00:00,49.3,43.4,30.32,SW,229,0.0,4.0,80,0.00,,,0.00,0001,Weather View 32 v70,2013-02-13 03:00:00,
2013-02-12 19:05:00,48.9,43.3,30.32,South,184,0.0,3.0,81,0.00,,,0.00,0002,Weather View 32 v70,2013-02-13 03:05:00,
2013-02-12 19:15:00,48.2,43.6,30.32,West,274,0.0,3.0,84,0.00,,,0.00,0002,Weather View 32 v70,2013-02-13 03:15:00,
2013-02-12 19:20:00,48.1,43.8,30.32,WNW,297,1.0,3.0,85,0.00,,,0.00,0002,Weather View 32 v70,2013-02-13 03:20:00,
2013-02-12 19:25:00,48.1,43.8,30.32,WSW,252,1.0,3.0,85,0.00,,,0.00,0002,Weather View 32 v70,2013-02-13 03:25:00,
2013-02-12 19:30:00,48.5,43.9,30.33,WSW,252,2.0,3.0,84,0.00,,,0.00,0002,Weather View 32 v70,2013-02-13 03:30:00,
2013-02-12 19:35:00,48.8,43.9,30.33,SW,229,1.0,3.0,83,0.00,,,0.00,0001,Weather View 32 v70,2013-02-13 03:35:00,
2013-02-12 19:40:00,48.8,43.5,30.33,SSW,207,0.0,3.0,82,0.00,,,0.00,0002,Weather View 32 v70,2013-02-13 03:40:00,
2013-02-12 19:50:00,48.7,43.1,30.33,SSW,207,1.0,3.0,81,0.00,,,0.00,0001,Weather View 32 v70,2013-02-13 03:50:00,
2013-02-12 19:55:00,48.5,42.9,30.33,SW,229,2.0,3.0,81,0.00,,,0.00,0002,Weather View 32 v70,2013-02-13 03:55:00,
2013-02-12 20:00:00,48.3,42.7,30.33,SSW,207,1.0,3.0,81,0.00,,,0.00,0002,Weather View 32 v70,2013-02-13 04:00:00,
2013-02-12 20:05:00,47.8,42.6,30.33,West,274,1.0,3.0,82,0.00,,,0.00,0002,Weather View 32 v70,2013-02-13 04:05:00,
2013-02-12 20:10:00,47.5,42.6,30.33,SSE,162,0.0,3.0,83,0.00,,,0.00,0001,Weather View 32 v70,2013-02-13 04:10:00,
2013-02-12 20:15:00,47.0,42.4,30.33,SE,139,0.0,3.0,84,0.00,,,0.00,0001,Weather View 32 v70,2013-02-13 04:15:00,
2013-02-12 20:20:00,46.2,41.9,30.33,South,184,0.0,3.0,85,0.00,,,0.00,0002,Weather View 32 v70,2013-02-13 04:20:00,
2013-02-12 20:27:00,46.0,42.3,30.33,South,184,0.0,3.0,87,0.00,,,0.00,0002,Weather View 32 v70,2013-02-13 04:27:00,
2013-02-12 20:35:00,45.8,42.7,30.33,SSE,162,0.0,3.0,89,0.00,,,0.00,0002,Weather View 32 v70,2013-02-13 04:35:00,
2013-02-12 20:40:00,45.7,42.6,30.33,South,184,0.0,3.0,89,0.00,,,0.00,0001,Weather View 32 v70,2013-02-13 04:40:00,
2013-02-12 20:45:00,45.3,42.2,30.33,ESE,117,0.0,3.0,89,0.00,,,0.00,0001,Weather View 32 v70,2013-02-13 04:45:00,
2013-02-12 20:50:00,45.0,42.2,30.33,SE,139,0.0,3.0,90,0.00,,,0.00,0001,Weather View 32 v70,2013-02-13 04:50:00,
2013-02-12 21:00:00,44.4,42.2,30.34,WSW,252,0.0,2.0,92,0.00,,,0.00,0001,Weather View 32 v70,2013-02-13 05:00:00,
2013-02-12 21:05:00,44.2,42.3,30.34,SSE,162,0.0,1.0,93,0.00,,,0.00,0002,Weather View 32 v70,2013-02-13 05:05:00,
2013-02-12 21:10:00,44.0,42.4,30.34,SSE,162,0.0,1.0,94,0.00,,,0.00,0002,Weather View 32 v70,2013-02-13 05:10:00,
2013-02-12 21:15:00,43.7,42.4,30.34,SE,139,0.0,1.0,95,0.00,,,0.00,0001,Weather View 32 v70,2013-02-13 05:15:00,
2013-02-12 21:20:00,43.5,42.2,30.34,SE,139,0.0,1.0,95,0.00,,,0.00,0001,Weather View 32 v70,2013-02-13 05:20:00,
2013-02-12 21:25:00,43.4,42.3,30.34,South,184,0.0,1.0,96,0.00,,,0.00,0001,Weather View 32 v70,2013-02-13 05:25:00,
2013-02-12 21:35:00,43.2,42.4,30.34,South,184,0.0,0.0,97,0.00,,,0.00,0001,Weather View 32 v70,2013-02-13 05:35:00,
2013-02-12 21:40:00,43.2,42.7,30.34,South,184,0.0,0.0,98,0.00,,,0.00,0001,Weather View 32 v70,2013-02-13 05:40:00,
2013-02-12 21:45:00,43.1,42.8,30.34,SSW,207,0.0,0.0,99,0.00,,,0.00,0001,Weather View 32 v70,2013-02-13 05:45:00,
2013-02-12 21:50:00,42.9,42.9,30.34,SE,139,0.0,0.0,100,0.00,,,0.00,0002,Weather View 32 v70,2013-02-13 05:50:00,
2013-02-12 21:55:00,42.6,42.6,30.34,South,184,0.0,0.0,100,0.00,,,0.00,0002,Weather View 32 v70,2013-02-13 05:55:00,
2013-02-12 22:00:00,42.3,42.3,30.35,SSE,162,0.0,0.0,100,0.00,,,0.00,0002,Weather View 32 v70,2013-02-13 06:00:00,
2013-02-12 22:10:00,41.9,41.9,30.35,SSW,207,0.0,0.0,100,0.00,,,0.00,0001,Weather View 32 v70,2013-02-13 06:10:00,
2013-02-12 22:15:00,41.9,41.9,30.35,North,4,0.0,0.0,100,0.00,,,0.00,0002,Weather View 32 v70,2013-02-13 06:15:00,
2013-02-12 22:20:00,42.0,42.0,30.35,SSE,162,0.0,0.0,100,0.00,,,0.00,0001,Weather View 32 v70,2013-02-13 06:20:00,
2013-02-12 22:25:00,41.8,41.8,30.35,South,184,0.0,0.0,100,0.00,,,0.00,0001,Weather View 32 v70,2013-02-13 06:25:00,
2013-02-12 22:30:00,41.8,41.8,30.35,SW,229,0.0,0.0,100,0.00,,,0.00,0001,Weather View 32 v70,2013-02-13 06:30:00,
2013-02-12 22:35:00,41.7,41.7,30.35,SSW,207,0.0,0.0,100,0.00,,,0.00,0001,Weather View 32 v70,2013-02-13 06:35:00,
2013-02-12 22:40:00,41.5,41.5,30.35,SE,139,0.0,0.0,100,0.00,,,0.00,0002,Weather View 32 v70,2013-02-13 06:40:00,
2013-02-12 22:50:00,41.3,41.3,30.35,SSW,207,0.0,0.0,100,0.00,,,0.00,0002,Weather View 32 v70,2013-02-13 06:50:00,
2013-02-12 22:55:00,41.3,41.3,30.35,SSW,207,0.0,1.0,100,0.00,,,0.00,0001,Weather View 32 v70,2013-02-13 06:55:00,
2013-02-12 23:00:00,41.5,41.5,30.36,SSE,162,0.0,1.0,100,0.00,,,0.00,0001,Weather View 32 v70,2013-02-13 07:00:00,
2013-02-12 23:05:00,41.5,41.5,30.36,South,184,0.0,1.0,100,0.00,,,0.00,0002,Weather View 32 v70,2013-02-13 07:05:00,
2013-02-12 23:10:00,41.2,41.2,30.36,SSE,162,0.0,1.0,100,0.00,,,0.00,0001,Weather View 32 v70,2013-02-13 07:10:00,
2013-02-12 23:15:00,41.2,41.2,30.36,SSW,207,0.0,1.0,100,0.00,,,0.00,0001,Weather View 32 v70,2013-02-13 07:15:00,
2013-02-12 23:25:00,41.4,41.4,30.36,WNW,297,0.0,1.0,100,0.00,,,0.00,0001,Weather View 32 v70,2013-02-13 07:25:00,
2013-02-12 23:30:00,41.5,41.5,30.36,SE,139,0.0,1.0,100,0.00,,,0.00,0001,Weather View 32 v70,2013-02-13 07:30:00,
2013-02-12 23:35:00,41.1,41.1,30.36,SSW,207,0.0,1.0,100,0.00,,,0.00,0001,Weather View 32 v70,2013-02-13 07:35:00,
2013-02-12 23:40:00,41.1,41.1,30.36,SSW,207,0.0,1.0,100,0.00,,,0.00,0001,Weather View 32 v70,2013-02-13 07:40:00,
2013-02-12 23:45:00,41.0,41.0,30.36,SSE,162,0.0,1.0,100,0.00,,,0.00,0001,Weather View 32 v70,2013-02-13 07:45:00,
2013-02-12 23:50:00,40.8,40.8,30.36,SE,139,0.0,1.0,100,0.00,,,0.00,0001,Weather View 32 v70,2013-02-13 07:50:00,